Hourly Data Report for October 27, 2016

All times are specified in Local Standard Time (LST). Add 1 hour to adjust for Daylight Saving Time where and when it is observed.

PENTICTON A
BRITISH COLUMBIA

49°27'45.000" N
119°36'08.000" W
344.40 m
1126146
71889
YYF

Download Data

Hourly Data (October 2016)
Hourly Data Report for October 27, 2016
Temp Definition
°C
Dew Point Temp Definition
°C
Rel Hum Definition
%
Wind Dir Definition
10's deg

Wind Spd Definition
km/h
Visibility Definition
km
Stn Press Definition
kPa
Hmdx Definition


Wind Chill Definition


Weather Definition


TIME
00:00 Legend Double Dagger 8.5 8.4 99 33 5 8.1 97.05     Rain,Fog
01:00 Legend Double Dagger 8.7 8.4 98 32 8 16.1 97.02     Rain
02:00 Legend Double Dagger 8.6 8.3 98 10 4 16.1 97.00     Rain
03:00 Legend Double Dagger 8.6 8.3 98 36 2 16.1 96.98     Moderate Drizzle
04:00 Legend Double Dagger 8.6 8.5 99 33 5 16.1 96.91     Drizzle
05:00 Legend Double Dagger 8.9 8.5 97 4 7 16.1 96.89     LegendNANA
06:00 Legend Double Dagger 10.2 8.8 91 16 20 24.1 96.87     LegendNANA
07:00 Legend Double Dagger 10.5 8.9 90 17 22 24.1 96.86     Mostly Cloudy
08:00 Legend Double Dagger 11.2 9.1 87 19 18 24.1 96.92     LegendNANA
09:00 Legend Double Dagger 11.4 9.5 88 14 12 24.1 96.95     LegendNANA
10:00 Legend Double Dagger 12.4 9.4 82 14 8 24.1 96.93     Cloudy
11:00 Legend Double Dagger 12.8 9.3 79 15 7 24.1 96.95     LegendNANA
12:00 Legend Double Dagger 12.9 9.0 77 17 17 24.1 96.92     LegendNANA
13:00 Legend Double Dagger 13.1 9.0 76 16 14 24.1 96.87     Cloudy
14:00 Legend Double Dagger 13.0 8.9 76 17 12 24.1 96.85     LegendNANA
15:00 Legend Double Dagger 12.8 8.5 75 17 9 24.1 96.86     LegendNANA
16:00 Legend Double Dagger 12.5 8.4 76 17 10 24.1 96.85     Cloudy
17:00 Legend Double Dagger 11.9 8.4 79 19 12 24.1 96.86     Rain
18:00 Legend Double Dagger 11.3 8.7 84 32 6 16.1 96.91     Rain
19:00 Legend Double Dagger 10.0 8.6 91 24 8 16.1 96.98     Rain
20:00 Legend Double Dagger 9.0 8.4 96 36 8 19.3 96.98     Rain
21:00 Legend Double Dagger 8.3 8.0 98 36 1 24.1 97.03     LegendNANA
22:00 Legend Double Dagger 7.3 7.2 99 36 2 24.1 97.09     Mostly Cloudy
23:00 Legend Double Dagger 6.9 6.6 98 34 5 24.1 97.16     LegendNANA

Notes on Data Quality.

Legend

  • E = Estimated
  • M = Missing
  • NA = Not Available
  • ‡ = Partner data that is not subject to review by the National Climate Archives
Date modified: